Portada
METAR-TAF:

METAR-TAF

Aeropuertos :

Air Force Base Langebaanweg

Langebaan, Sudáfrica

latitud: 32-58-08S, longitud: 018-09-55E, altitud: 33 m

Observación

El informe se hizo hace 18 minutos, a las 07:00 UTC
Viento 6 kt del norte-noreste
Temperatura 12°C
Humedad 100%
Presión 1015 hPa

METAR: FALW 160700Z AUTO 02006KT //// // ////// 12/12 Q1015

Hora: 09:18 (07:18 UTC)


TAF: falta

Observaciones y pronósticos meteorológicos de más de 4000 aeropuertos (mensajes METAR y TAF).

Los puntos amarillos y rojos representan las estaciones disponibles.

Ponga el ratón en el punto deseado para ver el nombre de la estación.

Haga clic para ver las observaciones y los pronósticos meteorológicos.

Para cambiar el mapa : haga clic en los botones verdes con una cruz de color negro para hacer un zoom, en el botón verde con un guión para alejar o en las flechas verdes para mapas adyacentes.


METAR-TAF: